This is the latest recevied weather packets stored in our database for station/object KM5R. If no packets are shown the sender has not sent any weather packets the latest 10 day(s).
| Time | Temp. | Humidity | Pressure | Rain* | Wind** | Luminosity | Snow |
|---|---|---|---|---|---|---|---|
| 1777946272 | 24.44° C | 66% | 1008.9 hPa | 0 mm | - | 0 W/m² | - |
| 1777945968 | 24.44° C | 66% | 1008.9 hPa | 0 mm | - | 0 W/m² | - |
| 1777945666 | 24.44° C | 65% | 1008.8 hPa | 0 mm | - | 0 W/m² | - |
| 1777945363 | 24.44° C | 65% | 1008.7 hPa | 0 mm | - | 0 W/m² | - |
| 1777945059 | 24.44° C | 65% | 1009 hPa | 0 mm | - | 0 W/m² | - |
| 1777944757 | 24.44° C | 65% | 1008.7 hPa | 0 mm | - | 0 W/m² | - |
| 1777944455 | 25° C | 65% | 1008.7 hPa | 0 mm | - | 0 W/m² | - |
| 1777944152 | 25° C | 65% | 1009 hPa | 0 mm | - | 0 W/m² | - |
| 1777943847 | 25° C | 64% | 1008.7 hPa | 0 mm | - | 1 W/m² | - |
| 1777943545 | 25° C | 64% | 1008.8 hPa | 0 mm | - | 1 W/m² | - |
| 1777943240 | 25° C | 63% | 1009 hPa | 0 mm | - | 3 W/m² | - |
| 1777942937 | 25.56° C | 63% | 1008.9 hPa | 0 mm | - | 5 W/m² | - |
| 1777942633 | 25.56° C | 61% | 1009 hPa | 0 mm | - | 9 W/m² | - |
| 1777942331 | 25.56° C | 61% | 1008.7 hPa | 0 mm | - | 12 W/m² | - |
| 1777942028 | 25.56° C | 61% | 1009 hPa | 0 mm | - | 15 W/m² | - |
| 1777941724 | 26.11° C | 60% | 1009 hPa | 0 mm | - | 18 W/m² | - |
| 1777941421 | 26.11° C | 59% | 1009 hPa | 0 mm | - | 21 W/m² | - |
| 1777941119 | 26.11° C | 59% | 1008.8 hPa | 0 mm | - | 29 W/m² | - |
| 1777940815 | 26.67° C | 58% | 1009 hPa | 0 mm | - | 31 W/m² | - |
| 1777940513 | 26.67° C | 58% | 1009 hPa | 0 mm | - | 37 W/m² | - |
| 1777940210 | 26.67° C | 58% | 1008.9 hPa | 0 mm | - | 46 W/m² | - |
| 1777939908 | 26.67° C | 59% | 1009 hPa | 0 mm | - | 46 W/m² | - |
| 1777939604 | 26.67° C | 58% | 1009 hPa | 0 mm | - | 53 W/m² | - |
| 1777939302 | 27.22° C | 59% | 1009.1 hPa | 0 mm | - | 63 W/m² | - |
| 1777938998 | 27.22° C | 57% | 1009.2 hPa | 0 mm | - | 97 W/m² | - |
* Rain latest hour (hover to see other rain measurements)
** Current wind speed in m/s (hover to see current wind gust speed)